Overview Statistics Trail Chart Weather Telemetry Raw packets
 

This is the latest recevied weather packets stored in our database for station/object OK1FET-14. If no packets are shown the sender has not sent any weather packets the latest 10 day(s).

<< 55 56 57 58 59 60 61 >>
Time Temp. Humidity Pressure Rain* Wind** Luminosity Snow
1788603049 18.89° C 53% 1021.3 hPa - - - -
1788603049 18.89° C 53% 1021.3 hPa - - - -
1788602750 18.89° C 52% 1021.4 hPa - - - -
1788602750 18.89° C 52% 1021.4 hPa - - - -
1788602750 18.89° C 52% 1021.4 hPa - - - -
1788602469 18.33° C 55% 1021.1 hPa - - - -
1788602469 18.33° C 55% 1021.1 hPa - - - -
1788602469 18.33° C 55% 1021.1 hPa - - - -
1788602188 18.89° C 52% 1021.2 hPa - - - -
1788602188 18.89° C 52% 1021.2 hPa - - - -
1788602188 18.89° C 52% 1021.2 hPa - - - -
1788601908 18.89° C 56% 1021.3 hPa - - - -
1788601908 18.89° C 56% 1021.3 hPa - - - -
1788601908 18.89° C 56% 1021.3 hPa - - - -
1788601908 18.89° C 56% 1021.3 hPa - - - -
1788601627 18.33° C 55% 1021.1 hPa - - - -
1788601627 18.33° C 55% 1021.1 hPa - - - -
1788601627 18.33° C 55% 1021.1 hPa - - - -
1788601346 18.89° C 55% 1020.9 hPa - - - -
1788601346 18.89° C 55% 1020.9 hPa - - - -
1788601346 18.89° C 55% 1020.9 hPa - - - -
1788601346 18.89° C 55% 1020.9 hPa - - - -
1788601066 17.78° C 57% 1021.2 hPa - - - -
1788601066 17.78° C 57% 1021.2 hPa - - - -
1788601066 17.78° C 57% 1021.2 hPa - - - -

* Rain since midnight (hover to see other rain measurements)
** Current wind speed in m/s (hover to see current wind gust speed)